| time (UTC) | temp F | wind direction | speed knots | gust knots | rain 1hr in | rain 24hr in | rain mn in | humidity % | barometer mb |
| 20260902112231 | 66 | 0 | 2.6 | 8.7 | 0.00 | 0.00 | 0.00 | 41 | 1007.3 |
| 20260902111732 | 66 | 0 | 2.6 | 7.8 | 0.00 | 0.00 | 0.00 | 42 | 1007.4 |
| 20260902111231 | 65 | 0 | 1.7 | 7.0 | 0.00 | 0.00 | 0.00 | 43 | 1007.7 |
| 20260902110731 | 65 | 0 | 1.7 | 7.0 | 0.00 | 0.00 | 0.00 | 43 | 1007.5 |
| 20260902110231 | 66 | 0 | 2.6 | 7.8 | 0.00 | 0.00 | 0.00 | 43 | 1007.7 |
| 20260902105230 | 66 | 0 | 2.6 | 5.2 | 0.00 | 0.00 | 0.00 | 42 | 1007.8 |
| 20260902104234 | 66 | 0 | 1.7 | 5.2 | 0.00 | 0.00 | 0.00 | 42 | 1007.5 |
| 20260902103731 | 67 | 0 | 1.7 | 5.2 | 0.00 | 0.00 | 0.00 | 45 | 1007.4 |
| 20260902103231 | 67 | 0 | 2.6 | 7.0 | 0.00 | 0.00 | 0.00 | 40 | 1007.4 |
| 20260902102731 | 68 | 0 | 2.6 | 7.8 | 0.00 | 0.00 | 0.00 | 39 | 1007.4 |
| 20260902102233 | 68 | 0 | 2.6 | 7.8 | 0.00 | 0.00 | 0.00 | 39 | 1007.5 |
| 20260902101731 | 68 | 0 | 3.5 | 8.7 | 0.00 | 0.00 | 0.00 | 39 | 1007.5 |
| 20260902101230 | 68 | 0 | 3.5 | 8.7 | 0.00 | 0.00 | 0.00 | 39 | 1007.5 |
| 20260902100732 | 68 | 0 | 3.5 | 8.7 | 0.00 | 0.00 | 0.00 | 39 | 1007.5 |
| 20260902100231 | 68 | 0 | 2.6 | 8.7 | 0.00 | 0.00 | 0.00 | 39 | 1007.7 |
| 20260902095732 | 68 | 0 | 2.6 | 5.2 | 0.00 | 0.00 | 0.00 | 39 | 1007.7 |
| 20260902095231 | 68 | 0 | 2.6 | 10.4 | 0.00 | 0.00 | 0.00 | 38 | 1007.7 |
| 20260902094738 | 69 | 0 | 3.5 | 10.4 | 0.00 | 0.00 | 0.00 | 38 | 1007.9 |
| 20260902094234 | 69 | 0 | 4.3 | 10.4 | 0.00 | 0.00 | 0.00 | 37 | 1008.0 |
| 20260902093731 | 69 | 0 | 3.5 | 9.6 | 0.00 | 0.00 | 0.00 | 38 | 1007.8 |
| 20260902093233 | 69 | 0 | 3.5 | 11.3 | 0.00 | 0.00 | 0.00 | 37 | 1007.9 |
| 20260902092231 | 69 | 0 | 3.5 | 11.3 | 0.00 | 0.00 | 0.00 | 39 | 1008.0 |
| 20260902091731 | 69 | 0 | 3.5 | 11.3 | 0.00 | 0.00 | 0.00 | 37 | 1008.2 |
| 20260902091230 | 69 | 0 | 2.6 | 8.7 | 0.00 | 0.00 | 0.00 | 36 | 1008.3 |
| 20260902090731 | 69 | 0 | 2.6 | 8.7 | 0.00 | 0.00 | 0.00 | 37 | 1008.2 |
| 20260902090230 | 69 | 0 | 2.6 | 7.8 | 0.00 | 0.00 | 0.00 | 37 | 1008.2 |
| 20260902085729 | 69 | 0 | 2.6 | 7.8 | 0.00 | 0.00 | 0.00 | 38 | 1008.3 |
| 20260902084717 | 68 | 0 | 2.6 | 5.2 | 0.00 | 0.00 | 0.00 | 38 | 1008.3 |
| 20260902083706 | 68 | 0 | 1.7 | 5.2 | 0.00 | 0.00 | 0.00 | 38 | 1008.5 |
| 20260902083205 | 68 | 0 | 2.6 | 9.6 | 0.00 | 0.00 | 0.00 | 38 | 1008.4 |
| 20260902082704 | 68 | 0 | 3.5 | 9.6 | 0.00 | 0.00 | 0.00 | 38 | 1008.5 |
| 20260902082205 | 68 | 0 | 4.3 | 9.6 | 0.00 | 0.00 | 0.00 | 37 | 1008.4 |
| 20260902081705 | 68 | 0 | 3.5 | 7.8 | 0.00 | 0.00 | 0.00 | 37 | 1008.4 |
| 20260902081204 | 69 | 0 | 2.6 | 5.2 | 0.00 | 0.00 | 0.00 | 36 | 1008.4 |
| 20260902080704 | 69 | 0 | 1.7 | 3.5 | 0.00 | 0.00 | 0.00 | 36 | 1008.2 |
| 20260902080205 | 68 | 0 | 0.9 | 3.5 | 0.00 | 0.00 | 0.00 | 36 | 1008.2 |
| 20260902075705 | 68 | 0 | 1.7 | 3.5 | 0.00 | 0.00 | 0.00 | 37 | 1008.2 |
| 20260902075206 | 68 | 0 | 0.9 | 2.6 | 0.00 | 0.00 | 0.00 | 40 | 1008.3 |
| 20260902074708 | 68 | 0 | 0.9 | 2.6 | 0.00 | 0.00 | 0.00 | 40 | 1008.1 |
| 20260902074208 | 67 | 0 | 0.9 | 2.6 | 0.00 | 0.00 | 0.00 | 40 | 1008.3 |
| 20260902073205 | 67 | 0 | 0.0 | 1.7 | 0.00 | 0.00 | 0.00 | 44 | 1008.4 |
| 20260902072204 | 68 | 0 | 0.9 | 2.6 | 0.00 | 0.00 | 0.00 | 45 | 1008.5 |
| 20260902071704 | 68 | 0 | 0.0 | 1.7 | 0.00 | 0.00 | 0.00 | 37 | 1008.6 |
| 20260902071203 | 69 | 0 | 0.9 | 3.5 | 0.00 | 0.00 | 0.00 | 38 | 1008.7 |
| 20260902070155 | 69 | 0 | 0.9 | 2.6 | 0.00 | 0.00 | 0.00 | 36 | 1008.7 |
| 20260902065141 | 70 | 0 | 0.9 | 3.5 | 0.00 | 0.00 | 0.00 | 35 | 1008.7 |
| 20260902064635 | 70 | 0 | 1.7 | 3.5 | 0.00 | 0.00 | 0.00 | 34 | 1008.6 |
| 20260902063635 | 71 | 0 | 1.7 | 4.3 | 0.00 | 0.00 | 0.00 | 33 | 1008.6 |
| 20260902061139 | 70 | 0 | 1.7 | 4.3 | 0.00 | 0.00 | 0.00 | 34 | 1008.7 |
| 20260902060633 | 71 | 0 | 1.7 | 4.3 | 0.00 | 0.00 | 0.00 | 34 | 1008.7 |
| 20260902055631 | 72 | 0 | 1.7 | 4.3 | 0.00 | 0.00 | 0.00 | 31 | 1008.5 |
| 20260902055131 | 72 | 0 | 2.6 | 4.3 | 0.00 | 0.00 | 0.00 | 32 | 1008.5 |
| 20260902054134 | 72 | 0 | 1.7 | 4.3 | 0.00 | 0.00 | 0.00 | 34 | 1008.5 |
| 20260902053630 | 72 | 0 | 1.7 | 3.5 | 0.00 | 0.00 | 0.00 | 34 | 1008.6 |
| 20260902052631 | 73 | 0 | 3.5 | 7.8 | 0.00 | 0.00 | 0.00 | 32 | 1009.1 |
| 20260902052133 | 73 | 0 | 2.6 | 7.8 | 0.00 | 0.00 | 0.00 | 34 | 1009.2 |
| 20260902051635 | 72 | 0 | 2.6 | 7.0 | 0.00 | 0.00 | 0.00 | 33 | 1009.4 |
| 20260902051131 | 72 | 0 | 2.6 | 7.0 | 0.00 | 0.00 | 0.00 | 32 | 1009.5 |
| 20260902050631 | 72 | 0 | 2.6 | 8.7 | 0.00 | 0.00 | 0.00 | 32 | 1009.5 |
| 20260902050133 | 72 | 0 | 2.6 | 8.7 | 0.00 | 0.00 | 0.00 | 32 | 1009.5 |
| 20260902045631 | 72 | 0 | 2.6 | 5.2 | 0.00 | 0.00 | 0.00 | 33 | 1009.5 |
| 20260902045131 | 72 | 0 | 2.6 | 7.8 | 0.00 | 0.00 | 0.00 | 33 | 1009.6 |
| 20260902044631 | 72 | 0 | 2.6 | 8.7 | 0.00 | 0.00 | 0.00 | 33 | 1009.6 |
| 20260902044131 | 72 | 0 | 2.6 | 8.7 | 0.00 | 0.00 | 0.00 | 32 | 1009.6 |
| 20260902043631 | 72 | 0 | 2.6 | 9.6 | 0.00 | 0.00 | 0.00 | 32 | 1009.6 |
| 20260902043133 | 72 | 0 | 3.5 | 9.6 | 0.00 | 0.00 | 0.00 | 33 | 1009.6 |
| 20260902041633 | 72 | 0 | 1.7 | 4.3 | 0.00 | 0.00 | 0.00 | 33 | 1009.6 |
| 20260902041137 | 72 | 0 | 1.7 | 4.3 | 0.00 | 0.00 | 0.00 | 31 | 1009.6 |
| 20260902040632 | 72 | 0 | 1.7 | 7.0 | 0.00 | 0.00 | 0.00 | 30 | 1009.6 |
| 20260902040132 | 72 | 0 | 0.9 | 7.0 | 0.00 | 0.00 | 0.00 | 29 | 1009.6 |
| 20260902035632 | 71 | 0 | 0.0 | 2.6 | 0.00 | 0.00 | 0.00 | 30 | 1009.5 |
| 20260902035134 | 71 | 0 | 0.0 | 2.6 | 0.00 | 0.00 | 0.00 | 31 | 1009.4 |
| 20260902034631 | 71 | 0 | 0.0 | 1.7 | 0.00 | 0.00 | 0.00 | 37 | 1009.4 |
| 20260902034130 | 71 | 0 | 0.0 | 1.7 | 0.00 | 0.00 | 0.00 | 33 | 1009.4 |
| 20260902033631 | 71 | 0 | 0.0 | 2.6 | 0.00 | 0.00 | 0.00 | 33 | 1009.5 |
| 20260902033130 | 71 | 0 | 0.9 | 3.5 | 0.00 | 0.00 | 0.00 | 35 | 1009.6 |
| 20260902032631 | 71 | 0 | 0.9 | 3.5 | 0.00 | 0.00 | 0.00 | 36 | 1009.5 |
| 20260902032132 | 71 | 0 | 0.9 | 2.6 | 0.00 | 0.00 | 0.00 | 38 | 1009.4 |
| 20260902031636 | 71 | 0 | 1.7 | 3.5 | 0.00 | 0.00 | 0.00 | 36 | 1009.5 |
| 20260902030133 | 72 | 0 | 0.9 | 3.5 | 0.00 | 0.00 | 0.00 | 35 | 1009.1 |
| 20260902025632 | 73 | 0 | 0.9 | 3.5 | 0.00 | 0.00 | 0.00 | 37 | 1009.0 |
| 20260902025132 | 74 | 0 | 0.9 | 3.5 | 0.00 | 0.00 | 0.00 | 30 | 1009.0 |
| 20260902024131 | 74 | 0 | 1.7 | 3.5 | 0.00 | 0.00 | 0.00 | 29 | 1008.5 |
| 20260902023131 | 74 | 0 | 2.6 | 10.4 | 0.00 | 0.00 | 0.00 | 30 | 1008.4 |
| 20260902022630 | 74 | 0 | 3.5 | 10.4 | 0.00 | 0.00 | 0.00 | 29 | 1008.3 |
| 20260902022134 | 73 | 0 | 1.7 | 4.3 | 0.00 | 0.00 | 0.00 | 33 | 1008.2 |
| 20260902021635 | 73 | 0 | 1.7 | 7.0 | 0.00 | 0.00 | 0.00 | 34 | 1007.9 |
| 20260902021131 | 72 | 0 | 2.6 | 7.0 | 0.00 | 0.00 | 0.00 | 38 | 1007.8 |
| 20260902020130 | 72 | 0 | 0.9 | 3.5 | 0.00 | 0.00 | 0.00 | 44 | 1007.4 |
| 20260902015631 | 73 | 219 | 0.0 | 2.6 | 0.00 | 0.00 | 0.00 | 42 | 1007.2 |
| 20260902015130 | 73 | 215 | 0.0 | 0.9 | 0.00 | 0.00 | 0.00 | 40 | 1006.9 |
| 20260902014631 | 74 | 215 | 0.9 | 3.5 | 0.00 | 0.00 | 0.00 | 37 | 1006.8 |
| 20260902013133 | 74 | 205 | 1.7 | 5.2 | 0.00 | 0.00 | 0.00 | 31 | 1006.8 |
| 20260902012130 | 74 | 212 | 1.7 | 5.2 | 0.00 | 0.00 | 0.00 | 33 | 1006.7 |
| 20260902011632 | 74 | 213 | 0.9 | 5.2 | 0.00 | 0.00 | 0.00 | 34 | 1006.6 |
| 20260902010631 | 75 | 192 | 1.7 | 3.5 | 0.00 | 0.00 | 0.00 | 34 | 1006.6 |
| 20260902010131 | 75 | 246 | 2.6 | 5.2 | 0.00 | 0.00 | 0.00 | 34 | 1006.5 |
| 20260902005631 | 75 | 242 | 2.6 | 5.2 | 0.00 | 0.00 | 0.00 | 35 | 1006.5 |
| 20260902004631 | 76 | 0 | 0.0 | 2.6 | 0.00 | 0.00 | 0.00 | 35 | 1006.5 |
| 20260902004132 | 77 | 0 | 0.9 | 2.6 | 0.00 | 0.00 | 0.00 | 34 | 1006.5 |
| 20260902003631 | 77 | 0 | 2.6 | 4.3 | 0.00 | 0.00 | 0.00 | 33 | 1006.5 |
| 20260902003133 | 78 | 0 | 3.5 | 7.0 | 0.00 | 0.00 | 0.00 | 32 | 1006.5 |
| 20260902002634 | 79 | 0 | 1.7 | 7.0 | 0.00 | 0.00 | 0.00 | 29 | 1006.3 |
| 20260902001633 | 80 | 332 | 0.0 | 0.0 | 0.00 | 0.00 | 0.00 | 22 | 1006.3 |
| 20260902001131 | 80 | 332 | 0.0 | 0.0 | 0.00 | 0.00 | 0.00 | 22 | 1006.5 |
| 20260902000632 | 81 | 332 | 0.0 | 0.0 | 0.00 | 0.00 | 0.00 | 28 | 1006.5 |
| 20260902000136 | 81 | 332 | 0.0 | 0.0 | 0.00 | 0.00 | 0.00 | 24 | 1006.5 |
| 20260901235633 | 81 | 332 | 0.0 | 0.0 | 0.00 | 0.00 | 0.00 | 19 | 1006.5 |
| 20260901235131 | 80 | 332 | 0.0 | 0.9 | 0.00 | 0.00 | 0.00 | 21 | 1006.6 |
| 20260901234631 | 80 | 332 | 0.0 | 1.7 | 0.00 | 0.00 | 0.00 | 21 | 1006.6 |
| 20260901234130 | 80 | 331 | 0.9 | 1.7 | 0.00 | 0.00 | 0.00 | 22 | 1006.7 |
| 20260901233129 | 81 | 332 | 1.7 | 3.5 | 0.00 | 0.00 | 0.00 | 19 | 1006.6 |
| 20260901232630 | 81 | 340 | 1.7 | 4.3 | 0.00 | 0.00 | 0.00 | 19 | 1006.7 |
| 20260901232128 | 82 | 329 | 1.7 | 4.3 | 0.00 | 0.00 | 0.00 | 19 | 1006.7 |
| 20260901231630 | 82 | 329 | 0.9 | 3.5 | 0.00 | 0.00 | 0.00 | 21 | 1006.7 |
| 20260901231129 | 82 | 11 | 0.9 | 3.5 | 0.00 | 0.00 | 0.00 | 18 | 1006.8 |
| 20260901230630 | 83 | 355 | 0.9 | 3.5 | 0.00 | 0.00 | 0.00 | 21 | 1006.9 |
| 20260901230130 | 83 | 27 | 0.9 | 3.5 | 0.00 | 0.00 | 0.00 | 17 | 1006.9 |
| 20260901225631 | 82 | 351 | 1.7 | 4.3 | 0.00 | 0.00 | 0.00 | 19 | 1006.9 |
| 20260901225133 | 82 | 340 | 1.7 | 4.3 | 0.00 | 0.00 | 0.00 | 19 | 1007.0 |
| 20260901224633 | 82 | 346 | 1.7 | 5.2 | 0.00 | 0.00 | 0.00 | 19 | 1007.1 |
| 20260901224131 | 82 | 355 | 1.7 | 7.0 | 0.00 | 0.00 | 0.00 | 18 | 1007.1 |
| 20260901223632 | 82 | 336 | 1.7 | 7.0 | 0.00 | 0.00 | 0.00 | 19 | 1007.3 |
| 20260901223130 | 82 | 10 | 1.7 | 5.2 | 0.00 | 0.00 | 0.00 | 21 | 1007.3 |
| 20260901222130 | 82 | 331 | 0.9 | 4.3 | 0.00 | 0.00 | 0.00 | 19 | 1007.4 |
| 20260901221626 | 83 | 341 | 0.9 | 4.3 | 0.00 | 0.00 | 0.00 | 18 | 1007.5 |
| 20260901221121 | 83 | 331 | 0.9 | 3.5 | 0.00 | 0.00 | 0.00 | 18 | 1007.5 |
| 20260901220616 | 83 | 23 | 1.7 | 3.5 | 0.00 | 0.00 | 0.00 | 21 | 1007.7 |
| 20260901220114 | 82 | 14 | 1.7 | 4.3 | 0.00 | 0.00 | 0.00 | 19 | 1007.5 |
| 20260901215115 | 82 | 355 | 1.7 | 3.5 | 0.00 | 0.00 | 0.00 | 19 | 1007.7 |
| 20260901214612 | 83 | 0 | 1.7 | 3.5 | 0.00 | 0.00 | 0.00 | 20 | 1007.7 |
| 20260901214113 | 83 | 336 | 0.9 | 2.6 | 0.00 | 0.00 | 0.00 | 20 | 1007.7 |
| 20260901213613 | 83 | 14 | 0.9 | 2.6 | 0.00 | 0.00 | 0.00 | 21 | 1007.8 |
| 20260901212612 | 83 | 355 | 0.9 | 1.7 | 0.00 | 0.00 | 0.00 | 22 | 1008.0 |
| 20260901212114 | 82 | 338 | 0.9 | 2.6 | 0.00 | 0.00 | 0.00 | 20 | 1008.1 |
| 20260901211614 | 82 | 343 | 0.9 | 2.6 | 0.00 | 0.00 | 0.00 | 20 | 1008.3 |
| 20260901211113 | 82 | 19 | 0.9 | 2.6 | 0.00 | 0.00 | 0.00 | 23 | 1008.4 |
| 20260901210611 | 82 | 348 | 0.9 | 2.6 | 0.00 | 0.00 | 0.00 | 21 | 1008.4 |
| 20260901210111 | 83 | 350 | 0.9 | 2.6 | 0.00 | 0.00 | 0.00 | 22 | 1008.5 |
| 20260901204612 | 81 | 68 | 0.9 | 2.6 | 0.00 | 0.00 | 0.00 | 24 | 1008.7 |
| 20260901204111 | 81 | 28 | 0.9 | 1.7 | 0.00 | 0.00 | 0.00 | 23 | 1008.9 |
| 20260901203612 | 80 | 0 | 0.9 | 1.7 | 0.00 | 0.00 | 0.00 | 23 | 1009.0 |
| 20260901203112 | 80 | 13 | 0.9 | 1.7 | 0.00 | 0.00 | 0.00 | 26 | 1009.1 |
| 20260901202607 | 80 | 0 | 0.9 | 1.7 | 0.00 | 0.00 | 0.00 | 24 | 1009.1 |
| 20260901201608 | 79 | 82 | 0.0 | 1.7 | 0.00 | 0.00 | 0.00 | 25 | 1009.3 |
| 20260901201107 | 79 | 82 | 0.0 | 2.6 | 0.00 | 0.00 | 0.00 | 27 | 1009.3 |
| 20260901200607 | 78 | 90 | 0.9 | 2.6 | 0.00 | 0.00 | 0.00 | 25 | 1009.3 |
| 20260901195607 | 78 | 35 | 0.9 | 1.7 | 0.00 | 0.00 | 0.00 | 29 | 1009.4 |
| 20260901195109 | 77 | 5 | 0.9 | 2.6 | 0.00 | 0.00 | 0.00 | 25 | 1009.4 |
| 20260901194103 | 77 | 0 | 0.0 | 1.7 | 0.00 | 0.00 | 0.00 | 29 | 1009.5 |
| 20260901193604 | 76 | 355 | 0.0 | 1.7 | 0.00 | 0.00 | 0.00 | 28 | 1009.6 |
| 20260901193103 | 76 | 350 | 0.9 | 1.7 | 0.00 | 0.00 | 0.00 | 28 | 1009.8 |
| 20260901192603 | 76 | 74 | 0.0 | 1.7 | 0.00 | 0.00 | 0.00 | 31 | 1010.0 |
| 20260901192102 | 75 | 76 | 0.9 | 1.7 | 0.00 | 0.00 | 0.00 | 29 | 1010.1 |
| 20260901191604 | 74 | 67 | 0.9 | 1.7 | 0.00 | 0.00 | 0.00 | 30 | 1010.1 |
| 20260901191103 | 74 | 62 | 0.9 | 1.7 | 0.00 | 0.00 | 0.00 | 31 | 1010.2 |
| 20260901190602 | 73 | 61 | 0.9 | 1.7 | 0.00 | 0.00 | 0.00 | 30 | 1010.3 |
| 20260901185602 | 73 | 87 | 0.9 | 2.6 | 0.00 | 0.00 | 0.00 | 32 | 1010.5 |
| 20260901185103 | 72 | 86 | 0.9 | 2.6 | 0.00 | 0.00 | 0.00 | 33 | 1010.6 |
| 20260901184603 | 72 | 56 | 0.9 | 1.7 | 0.00 | 0.00 | 0.00 | 31 | 1010.7 |
| 20260901184103 | 72 | 355 | 0.0 | 0.9 | 0.00 | 0.00 | 0.00 | 31 | 1010.9 |
| 20260901183605 | 71 | 12 | 0.9 | 1.7 | 0.00 | 0.00 | 0.00 | 29 | 1010.9 |
| 20260901183102 | 71 | 17 | 0.9 | 1.7 | 0.00 | 0.00 | 0.00 | 31 | 1011.0 |
| 20260901182606 | 71 | 17 | 0.9 | 1.7 | 0.00 | 0.00 | 0.00 | 28 | 1011.2 |
| 20260901182109 | 70 | 41 | 0.9 | 1.7 | 0.00 | 0.00 | 0.00 | 29 | 1011.3 |
| 20260901181606 | 70 | 62 | 0.9 | 1.7 | 0.00 | 0.00 | 0.00 | 32 | 1011.3 |
| 20260901181104 | 69 | 21 | 0.0 | 1.7 | 0.00 | 0.00 | 0.00 | 32 | 1011.4 |
| 20260901180602 | 68 | 11 | 0.0 | 1.7 | 0.00 | 0.00 | 0.00 | 34 | 1011.4 |
| 20260901180105 | 68 | 15 | 0.0 | 1.7 | 0.00 | 0.00 | 0.00 | 35 | 1011.6 |
| 20260901175607 | 67 | 0 | 0.0 | 1.7 | 0.00 | 0.00 | 0.00 | 35 | 1011.6 |
| 20260901175106 | 67 | 0 | 0.9 | 2.6 | 0.00 | 0.00 | 0.00 | 36 | 1011.7 |
| 20260901174606 | 67 | 0 | 0.9 | 2.6 | 0.00 | 0.00 | 0.00 | 40 | 1011.9 |
| 20260901174106 | 66 | 0 | 0.9 | 2.6 | 0.00 | 0.00 | 0.00 | 39 | 1011.9 |
| 20260901173606 | 66 | 0 | 0.9 | 1.7 | 0.00 | 0.00 | 0.00 | 39 | 1012.0 |
| 20260901173103 | 65 | 0 | 0.9 | 2.6 | 0.00 | 0.00 | 0.00 | 41 | 1012.0 |
| 20260901172604 | 65 | 0 | 1.7 | 2.6 | 0.00 | 0.00 | 0.00 | 39 | 1012.1 |
| 20260901172102 | 64 | 0 | 1.7 | 2.6 | 0.00 | 0.00 | 0.00 | 38 | 1012.0 |
| 20260901171602 | 64 | 0 | 1.7 | 2.6 | 0.00 | 0.00 | 0.00 | 41 | 1012.2 |
| 20260901171103 | 63 | 0 | 1.7 | 2.6 | 0.00 | 0.00 | 0.00 | 44 | 1012.2 |
| 20260901170602 | 63 | 0 | 1.7 | 2.6 | 0.00 | 0.00 | 0.00 | 44 | 1012.2 |
| 20260901165603 | 62 | 0 | 0.9 | 1.7 | 0.00 | 0.00 | 0.00 | 47 | 1012.2 |
| 20260901165058 | 62 | 0 | 0.9 | 2.6 | 0.00 | 0.00 | 0.00 | 47 | 1012.4 |
| 20260901164558 | 62 | 0 | 0.9 | 2.6 | 0.00 | 0.00 | 0.00 | 47 | 1012.2 |
| 20260901164058 | 61 | 0 | 0.9 | 2.6 | 0.00 | 0.00 | 0.00 | 49 | 1012.2 |
| 20260901163556 | 61 | 0 | 0.9 | 2.6 | 0.00 | 0.00 | 0.00 | 48 | 1012.2 |
| 20260901163055 | 61 | 0 | 0.9 | 2.6 | 0.00 | 0.00 | 0.00 | 49 | 1012.0 |
| 20260901162056 | 59 | 0 | 0.9 | 2.6 | 0.00 | 0.00 | 0.00 | 53 | 1012.2 |
| 20260901161558 | 59 | 0 | 0.9 | 1.7 | 0.00 | 0.00 | 0.00 | 53 | 1012.4 |
| 20260901161057 | 58 | 0 | 0.9 | 2.6 | 0.00 | 0.00 | 0.00 | 53 | 1012.4 |
| 20260901160558 | 58 | 0 | 1.7 | 2.6 | 0.00 | 0.00 | 0.00 | 53 | 1012.5 |
| 20260901160055 | 58 | 0 | 1.7 | 2.6 | 0.00 | 0.00 | 0.00 | 53 | 1012.4 |
| 20260901155555 | 58 | 0 | 0.9 | 2.6 | 0.00 | 0.00 | 0.00 | 56 | 1012.4 |
| 20260901155056 | 57 | 0 | 1.7 | 2.6 | 0.00 | 0.00 | 0.00 | 55 | 1012.5 |
| 20260901154548 | 57 | 0 | 1.7 | 3.5 | 0.00 | 0.00 | 0.00 | 55 | 1012.5 |
| 20260901154046 | 57 | 0 | 1.7 | 3.5 | 0.00 | 0.00 | 0.00 | 55 | 1012.5 |
| 20260901153547 | 57 | 0 | 1.7 | 3.5 | 0.00 | 0.00 | 0.00 | 56 | 1012.5 |
| 20260901152544 | 56 | 0 | 2.6 | 3.5 | 0.00 | 0.00 | 0.00 | 57 | 1012.4 |
| 20260901152046 | 56 | 0 | 1.7 | 3.5 | 0.00 | 0.00 | 0.00 | 58 | 1012.5 |
| 20260901151544 | 56 | 0 | 1.7 | 3.5 | 0.00 | 0.00 | 0.00 | 57 | 1012.6 |
| 20260901151040 | 56 | 0 | 1.7 | 3.5 | 0.00 | 0.00 | 0.00 | 57 | 1012.5 |
| 20260901150545 | 56 | 0 | 0.9 | 2.6 | 0.00 | 0.00 | 0.00 | 55 | 1012.6 |
| 20260901150040 | 56 | 0 | 0.9 | 2.6 | 0.00 | 0.00 | 0.00 | 55 | 1012.5 |
| 20260901145537 | 55 | 0 | 1.7 | 2.6 | 0.00 | 0.00 | 0.00 | 56 | 1012.5 |
| 20260901144540 | 54 | 0 | 0.9 | 3.5 | 0.00 | 0.00 | 0.00 | 59 | 1012.4 |
| 20260901144040 | 54 | 0 | 0.9 | 2.6 | 0.00 | 0.00 | 0.00 | 65 | 1012.2 |
| 20260901143538 | 54 | 0 | 0.9 | 2.6 | 0.00 | 0.00 | 0.00 | 66 | 1012.1 |
| 20260901143037 | 53 | 0 | 0.9 | 2.6 | 0.00 | 0.00 | 0.00 | 64 | 1012.2 |
| 20260901142535 | 52 | 0 | 0.0 | 0.0 | 0.00 | 0.00 | 0.00 | 64 | 1012.1 |
| 20260901142031 | 51 | 0 | 0.0 | 0.0 | 0.00 | 0.00 | 0.00 | 71 | 1012.1 |
| 20260901141532 | 49 | 310 | 0.0 | 0.0 | 0.00 | 0.00 | 0.00 | 73 | 1012.2 |
| 20260901140533 | 47 | 309 | 0.0 | 0.0 | 0.00 | 0.00 | 0.00 | 70 | 1012.4 |
| 20260901135034 | 47 | 309 | 0.0 | 0.0 | 0.00 | 0.00 | 0.00 | 68 | 1012.2 |
| 20260901134532 | 47 | 309 | 0.0 | 0.0 | 0.00 | 0.00 | 0.00 | 69 | 1012.0 |
| 20260901134032 | 47 | 309 | 0.0 | 0.0 | 0.00 | 0.00 | 0.00 | 68 | 1011.9 |
| 20260901133030 | 47 | 309 | 0.0 | 0.0 | 0.00 | 0.00 | 0.00 | 69 | 1011.8 |
| 20260901132531 | 47 | 309 | 0.0 | 0.0 | 0.00 | 0.00 | 0.00 | 71 | 1011.8 |
| 20260901132032 | 47 | 309 | 0.0 | 0.0 | 0.00 | 0.00 | 0.00 | 72 | 1011.9 |
| 20260901131531 | 47 | 309 | 0.0 | 0.0 | 0.00 | 0.00 | 0.00 | 72 | 1011.8 |
| 20260901131032 | 47 | 309 | 0.0 | 0.0 | 0.00 | 0.00 | 0.00 | 70 | 1011.8 |
| 20260901130532 | 47 | 309 | 0.0 | 0.0 | 0.00 | 0.00 | 0.00 | 71 | 1011.7 |
| 20260901125531 | 47 | 309 | 0.0 | 0.0 | 0.00 | 0.00 | 0.00 | 70 | 1011.5 |
| 20260901125030 | 47 | 309 | 0.0 | 0.0 | 0.00 | 0.00 | 0.00 | 70 | 1011.6 |
| 20260901124532 | 47 | 309 | 0.0 | 0.0 | 0.00 | 0.00 | 0.00 | 71 | 1011.6 |
| 20260901124029 | 47 | 309 | 0.0 | 0.0 | 0.00 | 0.00 | 0.00 | 70 | 1011.6 |
| 20260901123525 | 47 | 309 | 0.0 | 0.0 | 0.00 | 0.00 | 0.00 | 70 | 1011.6 |
| 20260901123018 | 47 | 309 | 0.0 | 0.0 | 0.00 | 0.00 | 0.00 | 69 | 1011.5 |
| 20260901122518 | 47 | 309 | 0.0 | 0.0 | 0.00 | 0.00 | 0.00 | 69 | 1011.5 |
| 20260901122016 | 47 | 309 | 0.0 | 0.0 | 0.00 | 0.00 | 0.00 | 68 | 1011.6 |
| 20260901121515 | 48 | 309 | 0.0 | 0.0 | 0.00 | 0.00 | 0.00 | 68 | 1011.6 |
| 20260901121017 | 48 | 309 | 0.0 | 0.0 | 0.00 | 0.00 | 0.00 | 69 | 1011.6 |
| 20260901120515 | 48 | 309 | 0.0 | 0.0 | 0.00 | 0.00 | 0.00 | 68 | 1011.6 |
| 20260901120012 | 48 | 309 | 0.0 | 0.0 | 0.00 | 0.00 | 0.00 | 68 | 1011.7 |
| 20260901115512 | 48 | 309 | 0.0 | 0.0 | 0.00 | 0.00 | 0.00 | 67 | 1011.7 |
| 20260901115012 | 48 | 309 | 0.0 | 0.0 | 0.00 | 0.00 | 0.00 | 67 | 1011.6 |
| 20260901114510 | 48 | 309 | 0.0 | 0.0 | 0.00 | 0.00 | 0.00 | 67 | 1011.6 |
| 20260901114007 | 48 | 309 | 0.0 | 0.0 | 0.00 | 0.00 | 0.00 | 67 | 1011.6 |